Voltar ao catálogo

THORAD AGENA D DEB

AtivoLEO
NORAD 4154·DEBRIS·🇺🇸 United States

Lançado Sep 30, 1969 de Vandenberg Space Force Base

Loading…

Próximas Passagens (próximas 24 horas)

TLE

AtualizadoSource: Space-Track

Época: Sep 14, 2026, 10:24 UTC

1 04154U 69082W   26257.43338668  .00000106  00000-0  96498-4 0  9999
2 04154  70.0708 326.1278 0049367 327.0458  32.7578 14.06136561662059

Acompanhe THORAD AGENA D DEB em tempo real com AllMySat

Download on the App Store